Content
SEND FEEDBACK

Daily
Averages
Monthly
Summary
United States of America

WINSTED, MINNESOTA


Home > North America > United States > Minnesota
Elevation: 1004 feet     Latitude: 44 58N     Longitude: 094 03W

WEATHER
 
SELECT A DAY
Number of Records: 400,675;   Date Range: 10/9/98 - 10/19/14
 
SHARE

PRINT THIS DATA

[ ← Previous Day ]
WEATHER ALMANAC - JANUARY 31, 2013
[ Next Day → ]
[ °C ]   °F
Weather ElementAverageHighLow
Temperature-2 °F5.7 °F (12:36 am)-9.4 °F (11:56 pm)
Dewpoint-8.9 °F0.1 °F (12:36 am)-16.2 °F (11:56 pm)
Humidity72.4 %80 % (2:16 am)65 % (2:16 pm)
Barometer30.04 in30.27 in (10:16 pm)29.78 in (12:36 am)
Wind Speed18.5 mph26.5 mph (9:56 am)
Wind Gust32.2 mph (9:56 am)
Weather ElementAverage
Visibility8.5 mi
Wind DirectionWNW (286.9 °)

Weather ElementTotal
Precipitation---
Heating Degree Days66.9 (Base 65)
Averaged from 67 records on January 31, 2013
WEATHER CONDITIONS BREAKOUT
WIND DIRECTION BREAKOUT
WEATHER BY HOUR - JANUARY 31, 2013
[ °C ]   °F
Local TimeTemperatureDewpointHumidityBarometerVisibilityWind DirectionWind SpeedGust SpeedPrecipitationEventsConditions
12:36 AM5.7 °F0.1 °F78 %29.78 in10.0 miWest (280°)13.8 mphOvercast
12:56 AM5.4 °F-0.4 °F77 %29.79 in10.0 miWest (280°)18.4 mphOvercast
1:16 AM4.8 °F-0.4 °F79 %29.80 in10.0 miWest (270°)12.7 mphOvercast
1:36 AM3.9 °F-1.3 °F79 %29.80 in7.0 miWest (280°)16.1 mph23.0 mphOvercast
1:56 AM3.0 °F-2.2 °F79 %29.81 in10.0 miWest (270°)13.8 mph20.7 mphOvercast
2:16 AM2.3 °F-2.6 °F80 %29.81 in7.0 miWest (270°)15.0 mph20.7 mphOvercast
2:36 AM2.3 °F-2.6 °F80 %29.82 in7.0 miWNW (290°)19.6 mph25.3 mphOvercast
2:56 AM2.1 °F-3.5 °F77 %29.82 in7.0 miWest (280°)20.7 mphOvercast
3:16 AM1.9 °F-3.8 °F77 %29.82 in7.0 miWNW (290°)17.3 mph24.2 mphOvercast
3:36 AM1.6 °F-4.0 °F77 %29.82 in10.0 miWNW (290°)20.7 mphOvercast
3:56 AM1.4 °F-4.2 °F77 %29.83 in10.0 miWNW (290°)16.1 mph20.7 mphOvercast
4:16 AM1.2 °F-4.7 °F76 %29.84 in10.0 miWNW (290°)16.1 mph24.2 mphOvercast
4:36 AM1.0 °F-4.9 °F76 %29.85 in10.0 miWNW (290°)13.8 mphOvercast
4:56 AM0.7 °F-5.1 °F77 %29.85 in7.0 miWNW (290°)15.0 mph21.9 mphOvercast
5:16 AM0.5 °F-5.3 °F77 %29.86 in7.0 miWest (280°)17.3 mph23.0 mphOvercast
5:36 AM0.5 °F-5.1 °F77 %29.87 in5.0 miWest (280°)15.0 mph25.3 mphHaze
5:56 AM0.0 °F-5.6 °F77 %29.88 in5.0 miWNW (290°)19.6 mph24.2 mphHaze
6:16 AM-0.6 °F-6.0 °F78 %29.89 in5.0 miWest (280°)19.6 mph23.0 mphHaze
6:36 AM-1.3 °F-6.9 °F77 %29.90 in5.0 miWNW (290°)16.1 mph25.3 mphHaze
6:56 AM-1.3 °F-7.1 °F77 %29.91 in7.0 miWNW (290°)17.3 mph21.9 mphOvercast
7:16 AM-1.7 °F-7.6 °F76 %29.92 in7.0 miWest (280°)20.7 mph24.2 mphOvercast
7:36 AM-2.2 °F-7.8 °F77 %29.93 in7.0 miWNW (300°)20.7 mphOvercast
7:56 AM-2.6 °F-8.3 °F76 %29.94 in4.0 miWNW (290°)17.3 mph21.9 mphHaze
8:16 AM-3.1 °F-9.2 °F75 %29.95 in5.0 miWNW (300°)21.9 mph27.6 mphHaze
8:36 AM-3.6 °F-10.7 °F72 %29.96 in7.0 miWNW (290°)21.9 mph28.8 mphOvercast
8:56 AM-3.8 °F-11.0 °F71 %29.97 in7.0 miWNW (300°)24.2 mph29.9 mphOvercast
9:21 AM-4.2 °F-11.0 °F72 %29.99 in7.0 miWest (270°)16.1 mph24.2 mphOvercast
9:36 AM-4.5 °F-11.4 °F72 %30.00 in7.0 miWNW (300°)18.4 mph27.6 mphOvercast
9:56 AM-4.4 °F-12.1 °F69 %30.01 in10.0 miWNW (290°)26.5 mph32.2 mphOvercast
10:16 AM-4.0 °F-11.2 °F71 %30.03 in7.0 miWNW (290°)20.7 mph27.6 mphOvercast
10:36 AM-3.5 °F-11.0 °F70 %30.04 in7.0 miWNW (290°)23.0 mph27.6 mphOvercast
11:16 AM-2.4 °F-10.1 °F70 %30.05 in7.0 miWest (280°)24.2 mph29.9 mphOvercast
11:36 AM-1.5 °F-9.0 °F70 %30.05 in7.0 miWNW (300°)19.6 mph31.1 mphOvercast
11:56 AM-1.1 °F-8.9 °F70 %30.05 in5.0 miWNW (290°)25.3 mph31.1 mphHaze
12:16 PM-0.6 °F-8.9 °F68 %30.06 in10.0 miWNW (300°)24.2 mph31.1 mphOvercast
12:36 PM-0.8 °F-9.0 °F68 %30.07 in10.0 miWNW (300°)18.4 mph32.2 mphMostly Cloudy
12:56 PM0.1 °F-8.1 °F68 %30.07 in10.0 miWNW (290°)19.6 mph26.5 mphMostly Cloudy
1:16 PM0.5 °F-8.0 °F68 %30.08 in7.0 miWest (280°)24.2 mph32.2 mphMostly Cloudy
1:36 PM0.7 °F-7.8 °F68 %30.08 in7.0 miWNW (290°)25.3 mph31.1 mphOvercast
1:56 PM0.9 °F-7.6 °F68 %30.09 in10.0 miWNW (300°)21.9 mph28.8 mphMostly Cloudy
2:16 PM0.9 °F-8.3 °F65 %30.09 in10.0 miWNW (300°)18.4 mph27.6 mphScattered Clouds
2:35 PM0.9 °F-7.4 °F68 %30.10 in10.0 miWNW (300°)18.4 mph28.8 mphMostly Cloudy
2:56 PM0.5 °F-7.1 °F70 %30.11 in10.0 miWNW (290°)20.7 mph26.5 mphOvercast
3:16 PM0.0 °F-7.8 °F70 %30.12 in7.0 miWest (280°)18.4 mph25.3 mphOvercast
3:36 PM-0.4 °F-8.1 °F70 %30.13 in10.0 miWest (280°)19.6 mph29.9 mphMostly Cloudy
3:56 PM-0.9 °F-8.9 °F69 %30.14 in10.0 miWNW (290°)21.9 mph26.5 mphMostly Cloudy
4:16 PM-1.5 °F-9.4 °F69 %30.15 in7.0 miWest (280°)21.9 mph28.8 mphMostly Cloudy
4:36 PM-2.2 °F-10.5 °F68 %30.16 in10.0 miWNW (290°)18.4 mph29.9 mphScattered Clouds
4:56 PM-2.9 °F-10.8 °F69 %30.17 in10.0 miWNW (290°)19.6 mph28.8 mphClear
5:16 PM-3.8 °F-11.6 °F69 %30.18 in10.0 miWNW (290°)20.7 mph27.6 mphClear
5:36 PM-4.0 °F-11.6 °F70 %30.19 in10.0 miWNW (290°)21.9 mph25.3 mphClear
6:16 PM-4.9 °F-12.6 °F69 %30.20 in10.0 miWNW (290°)20.7 mphClear
6:36 PM-5.4 °F-13.0 °F70 %30.21 in10.0 miWest (280°)19.6 mph25.3 mphClear
6:56 PM-5.8 °F-13.2 °F70 %30.22 in10.0 miWNW (290°)16.1 mph26.5 mphClear
7:16 PM-5.8 °F-13.5 °F69 %30.22 in10.0 miWNW (290°)17.3 mph23.0 mphClear
7:36 PM-6.2 °F-14.1 °F69 %30.23 in10.0 miWNW (290°)15.0 mph25.3 mphClear
8:16 PM-6.3 °F-14.3 °F69 %30.24 in10.0 miWNW (290°)17.3 mphClear
8:36 PM-6.7 °F-14.8 °F68 %30.25 in10.0 miWest (280°)17.3 mph20.7 mphClear
8:56 PM-6.7 °F-14.8 °F68 %30.25 in10.0 miWNW (290°)13.8 mph24.2 mphClear
9:15 PM-7.1 °F-14.4 °F70 %30.25 in10.0 miWest (280°)15.0 mph20.7 mphClear
9:36 PM-7.2 °F-14.4 °F71 %30.26 in10.0 miWest (280°)12.7 mph17.3 mphClear
10:16 PM-7.8 °F-14.8 °F71 %30.27 in10.0 miWest (280°)15.0 mphClear
10:36 PM-8.1 °F-15.0 °F72 %30.27 in10.0 miWest (280°)17.3 mphClear
10:56 PM-8.5 °F-15.3 °F72 %30.27 in10.0 miWest (280°)16.1 mph20.7 mph
11:16 PM-8.7 °F-15.5 °F72 %30.27 in10.0 miWest (280°)12.7 mphClear
11:35 PM-8.9 °F-15.9 °F71 %30.27 in10.0 miWest (280°)13.8 mphClear
11:56 PM-9.4 °F-16.2 °F72 %30.27 in10.0 miWest (280°)12.7 mphClear
Hourly data recorded from KGYL, located miles away from Winsted, Minnesota







STORIES FROM OUR PARTNERS